Location: Bauerbach
(50.4985°N, 10.3912°E)
Time: 18:13:22
(UTC+00:00)

COSMO-SKYMED 1 - Pass Details

Date: 13 January 2026
Orbit: 577 x 579 km, 97.9° (Epoch: 16 February)

Event Time Altitude Azimuth Distance (km) Brightness Sun altitude
Rises 05:34:09 0° 195° (SSW) 2,790 5.9 -15.3°
Reaches altitude 10° 05:36:35 10° 209° (SSW) 1,896 4.9 -14.9°
Maximum altitude 05:40:02 26° 266° (W) 1,177 3.4 -14.4°
Enters shadow 05:40:47 24° 284° (WNW) 1,224 3.4 -14.3°
